Back to catalog

KKS-1

KISEKI

AliveScienceSSO
NORAD 33499·PAYLOAD·🇯🇵 Japan

Launched Jan 23, 2009 from Tanegashima Space Center

Loading…

Next Passes (next 24 hours)

TLE

FreshSource: Space-Track

Epoch: Sep 14, 2026, 13:49 UTC

1 33499U 09002H   26257.57593830  .00001048  00000-0  13475-3 0  9997
2 33499  98.1161 181.4303 0008115  11.0157 349.1233 14.83313421949441

Track KKS-1 in real time with AllMySat

Download on the App Store